FW3660 Weather Reports


Display with metric or nautical units.
time (UTC)temp
F
wind
direction
speed
MPH
gust
MPH
rain 1hr
in
rain 24hr
in
rain mn
in
humidity
%
barometer
mb
20260906133302 70 123 3.0 6.0 0.00 0.00 0.00 76 992.6
20260906132802 70 41 3.0 7.0 0.00 0.00 0.00 77 992.5
20260906132300 69 15 3.0 7.0 0.00 0.00 0.00 79 992.6
20260906131801 69 36 2.0 6.0 0.00 0.00 0.00 80 992.5
20260906131539 68 325 1.0 5.0 0.00 0.00 0.00 82 992.4
20260906130800 68 44 2.0 5.0 0.00 0.00 0.00 83 992.4
20260906130302 67 9 1.0 5.0 0.00 0.00 0.00 85 992.3
20260906130038 67 30 1.0 4.0 0.00 0.00 0.00 85 992.3
20260906125305 67 5 1.0 4.0 0.00 0.00 0.00 85 992.1
20260906124801 67 306 1.0 4.0 0.00 0.00 0.00 86 991.9
20260906124302 66 25 1.0 4.0 0.00 0.00 0.00 86 991.8
20260906123817 66 39 1.0 4.0 0.00 0.00 0.00 86 991.8
20260906123811 66 25 1.0 4.0 0.00 0.00 0.00 86 991.8
20260906122801 66 32 2.0 5.0 0.00 0.00 0.00 86 991.7
20260906122301 65 32 2.0 5.0 0.00 0.00 0.00 86 991.8
20260906121800 65 0 2.0 4.0 0.00 0.00 0.00 86 991.7
20260906121302 65 17 2.0 4.0 0.00 0.00 0.00 86 991.7
20260906120802 65 17 2.0 4.0 0.00 0.00 0.00 86 991.6
20260906120300 65 44 2.0 4.0 0.00 0.00 0.00 86 991.5
20260906115801 65 44 2.0 4.0 0.00 0.00 0.00 85 991.5
20260906115301 64 44 1.0 4.0 0.00 0.00 0.00 85 991.4
20260906114801 64 322 1.0 3.0 0.00 0.00 0.00 85 991.3
20260906114301 65 322 2.0 4.0 0.00 0.00 0.00 85 991.2
20260906113802 64 322 3.0 5.0 0.00 0.00 0.00 85 991.3
20260906113540 64 322 2.0 5.0 0.00 0.00 0.00 85 991.2
20260906112801 65 342 2.0 4.0 0.00 0.00 0.00 85 991.1
20260906112537 65 342 2.0 5.0 0.00 0.00 0.00 85 991.0
20260906111801 65 342 2.0 5.0 0.00 0.00 0.00 85 990.9
20260906111301 65 342 3.0 5.0 0.00 0.00 0.00 84 991.0
20260906110801 65 342 3.0 5.0 0.00 0.00 0.00 84 990.9
20260906110301 65 10 4.0 5.0 0.00 0.00 0.00 84 990.9
20260906105801 65 355 4.0 6.0 0.00 0.00 0.00 84 990.9
20260906105301 65 33 4.0 6.0 0.00 0.00 0.00 84 990.8
20260906104800 65 22 2.0 5.0 0.00 0.00 0.00 84 990.9
20260906104300 65 326 2.0 6.0 0.00 0.00 0.00 84 990.9
20260906103801 65 326 2.0 6.0 0.00 0.00 0.00 84 990.9
20260906103539 64 317 3.0 6.0 0.00 0.00 0.00 84 990.9
20260906102801 64 320 4.0 6.0 0.00 0.00 0.00 84 990.9
20260906102536 64 333 3.0 6.0 0.00 0.00 0.00 83 990.9
20260906101801 64 288 2.0 5.0 0.00 0.00 0.00 83 990.9
20260906101317 64 285 3.0 5.0 0.00 0.00 0.00 83 990.7
20260906101312 64 285 2.0 5.0 0.00 0.00 0.00 83 990.9
20260906100302 64 300 4.0 6.0 0.00 0.00 0.00 83 990.8
20260906095800 65 325 4.0 6.0 0.00 0.00 0.00 83 990.7
20260906095305 65 298 4.0 7.0 0.00 0.00 0.00 83 990.7
20260906094801 65 325 5.0 7.0 0.00 0.00 0.00 83 990.8
20260906094302 65 349 4.0 7.0 0.00 0.00 0.00 83 990.7
20260906093802 65 14 4.0 7.0 0.00 0.00 0.00 83 990.6
20260906093302 65 22 5.0 7.0 0.00 0.00 0.00 83 990.6
20260906092800 65 18 5.0 7.0 0.00 0.00 0.00 83 990.6
20260906092538 65 9 6.0 7.0 0.00 0.00 0.00 83 990.5
20260906091800 65 11 5.0 7.0 0.00 0.00 0.00 83 990.5
20260906091538 65 350 4.0 6.0 0.00 0.00 0.00 83 990.5
20260906090801 65 351 4.0 6.0 0.00 0.00 0.00 83 990.6
20260906090302 65 334 4.0 6.0 0.00 0.00 0.00 82 990.5
20260906085801 65 35 3.0 6.0 0.00 0.00 0.00 83 990.5
20260906085300 65 11 4.0 6.0 0.00 0.00 0.00 83 990.5
20260906084801 65 51 4.0 7.0 0.00 0.00 0.00 82 990.6
20260906084300 65 19 4.0 7.0 0.00 0.00 0.00 82 990.6
20260906083801 65 27 4.0 5.0 0.00 0.00 0.00 83 990.5
20260906083302 65 13 4.0 5.0 0.00 0.00 0.00 82 990.5
20260906082802 65 16 3.0 5.0 0.00 0.00 0.00 82 990.5
20260906082301 65 51 2.0 4.0 0.00 0.00 0.00 82 990.4
20260906081800 65 16 3.0 5.0 0.00 0.00 0.00 82 990.4
20260906081300 65 307 2.0 5.0 0.00 0.00 0.00 82 990.4
20260906081038 65 302 2.0 5.0 0.00 0.00 0.00 82 990.4
20260906080301 65 321 3.0 5.0 0.00 0.00 0.00 83 990.4
20260906080038 65 338 3.0 5.0 0.00 0.00 0.00 83 990.4
20260906075301 65 317 4.0 6.0 0.00 0.00 0.00 83 990.4
20260906075040 65 313 4.0 6.0 0.00 0.00 0.00 83 990.4
20260906074301 65 300 3.0 6.0 0.00 0.00 0.00 83 990.3
20260906073802 65 307 2.0 5.0 0.00 0.00 0.00 82 990.3
20260906073301 65 291 2.0 4.0 0.00 0.00 0.00 82 990.2
20260906072801 65 305 2.0 6.0 0.00 0.00 0.00 82 990.2
20260906072305 65 311 3.0 6.0 0.00 0.00 0.00 82 990.2
20260906072035 65 304 3.0 5.0 0.00 0.00 0.00 82 990.1
20260906071301 65 314 3.0 5.0 0.00 0.00 0.00 82 990.1
20260906070802 65 327 3.0 5.0 0.00 0.00 0.00 83 990.2
20260906070302 65 306 3.0 5.0 0.00 0.00 0.00 83 990.1
20260906065758 65 329 3.0 5.0 0.00 0.00 0.00 83 990.1
20260906065531 65 323 3.0 6.0 0.00 0.00 0.00 83 990.3
20260906064746 65 323 3.0 6.0 0.00 0.00 0.00 83 990.2
20260906064241 65 312 3.0 6.0 0.00 0.00 0.00 83 990.3
20260906063734 65 309 3.0 6.0 0.00 0.00 0.00 83 990.3
20260906063230 65 304 4.0 6.0 0.00 0.00 0.00 82 990.4
20260906062749 65 297 4.0 7.0 0.00 0.00 0.00 82 990.4
20260906062742 65 262 4.0 7.0 0.00 0.00 0.00 82 990.4
20260906061730 65 308 3.0 6.0 0.00 0.00 0.00 82 990.3
20260906061228 65 282 3.0 5.0 0.00 0.00 0.00 82 990.3
20260906060729 65 301 4.0 6.0 0.00 0.00 0.00 82 990.1
20260906060229 65 289 4.0 6.0 0.00 0.00 0.00 82 990.2
20260906055729 65 288 4.0 6.0 0.00 0.00 0.00 82 990.2
20260906055229 65 304 4.0 6.0 0.00 0.00 0.00 82 990.1
20260906054729 65 330 4.0 6.0 0.00 0.00 0.00 82 990.1
20260906054229 65 290 4.0 5.0 0.00 0.00 0.00 82 990.2
20260906054011 65 306 3.0 5.0 0.00 0.00 0.00 82 990.2
20260906053503 65 300 2.0 6.0 0.00 0.00 0.00 82 990.3
20260906052729 65 298 3.0 6.0 0.00 0.00 0.00 82 990.2
20260906052229 65 301 3.0 6.0 0.00 0.00 0.00 81 990.1
20260906051729 65 318 2.0 6.0 0.00 0.00 0.00 81 990.2
20260906051229 65 324 1.0 4.0 0.00 0.00 0.00 81 990.1
20260906050739 66 324 3.0 5.0 0.00 0.00 0.00 81 990.1
20260906050734 65 324 2.0 5.0 0.00 0.00 0.00 81 989.9
20260906045716 66 323 3.0 6.0 0.00 0.00 0.00 81 990.0
20260906045211 66 309 4.0 6.0 0.00 0.00 0.00 81 990.1
20260906044703 66 312 4.0 6.0 0.00 0.00 0.00 81 990.0
20260906044443 66 330 5.0 7.0 0.00 0.00 0.00 81 990.0
20260906043722 66 320 4.0 6.0 0.00 0.00 0.00 81 990.0
20260906043716 66 329 5.0 7.0 0.00 0.00 0.00 81 990.0
20260906042705 66 308 5.0 7.0 0.00 0.00 0.00 81 989.8
20260906042204 66 336 5.0 8.0 0.00 0.00 0.00 81 989.7
20260906041702 66 0 5.0 8.0 0.00 0.00 0.00 81 989.7
20260906041441 66 14 5.0 7.0 0.00 0.00 0.00 81 989.6
20260906040702 66 0 5.0 8.0 0.00 0.00 0.00 81 989.6
20260906040202 67 56 5.0 8.0 0.00 0.00 0.00 81 989.6
20260906035702 67 25 5.0 7.0 0.00 0.00 0.00 81 989.7
20260906035201 67 355 5.0 8.0 0.00 0.00 0.00 81 989.8
20260906034702 67 38 5.0 8.0 0.00 0.00 0.00 81 989.8
20260906034201 67 11 5.0 9.0 0.00 0.00 0.00 81 989.7
20260906033701 67 44 5.0 9.0 0.00 0.00 0.00 80 989.7
20260906033201 67 250 6.0 11.0 0.00 0.00 0.00 80 989.7
20260906032700 67 33 6.0 11.0 0.00 0.00 0.00 80 989.6
20260906032202 67 5 6.0 11.0 0.00 0.00 0.00 80 989.6
20260906031701 67 42 6.0 11.0 0.00 0.00 0.00 80 989.6
20260906031200 67 150 5.0 11.0 0.00 0.00 0.00 79 989.7
20260906030701 67 337 5.0 10.0 0.00 0.00 0.00 79 989.7
20260906030201 67 0 5.0 10.0 0.00 0.00 0.00 79 989.7
20260906025702 67 346 5.0 9.0 0.00 0.00 0.00 79 989.7
20260906025201 67 35 5.0 10.0 0.00 0.00 0.00 79 989.8
20260906024702 68 42 4.0 10.0 0.00 0.00 0.00 78 989.7
20260906024437 68 40 4.0 10.0 0.00 0.00 0.00 78 989.7
20260906023701 68 28 4.0 10.0 0.00 0.00 0.00 78 989.6
20260906023202 68 30 5.0 11.0 0.00 0.00 0.00 78 989.6
20260906022701 68 36 5.0 11.0 0.00 0.00 0.00 78 989.5
20260906022201 68 336 4.0 9.0 0.00 0.00 0.00 78 989.5
20260906021701 68 44 3.0 9.0 0.00 0.00 0.00 77 989.6
20260906021202 69 26 4.0 10.0 0.00 0.00 0.00 77 989.6
20260906020701 69 78 5.0 10.0 0.00 0.00 0.00 77 989.6
20260906020201 69 69 5.0 10.0 0.00 0.00 0.00 77 989.5
20260906015703 69 26 6.0 10.0 0.00 0.00 0.00 77 989.5
20260906015159 69 57 5.0 9.0 0.00 0.00 0.00 77 989.5
20260906014941 69 48 4.0 9.0 0.00 0.00 0.00 78 989.4
20260906014201 69 19 4.0 9.0 0.00 0.00 0.00 78 989.4
20260906013659 69 92 5.0 9.0 0.00 0.00 0.00 79 989.4
20260906013158 69 49 4.0 9.0 0.00 0.00 0.00 79 989.4
20260906012659 70 61 3.0 8.0 0.00 0.00 0.00 80 989.5
20260906012157 70 76 3.0 8.0 0.00 0.00 0.00 80 989.4
20260906011658 70 96 3.0 8.0 0.00 0.00 0.00 80 989.4
20260906011435 70 16 2.0 7.0 0.00 0.00 0.00 80 989.4
20260906010658 70 77 3.0 6.0 0.00 0.00 0.00 80 989.5
20260906010157 70 29 3.0 7.0 0.00 0.00 0.00 81 989.5
20260906005657 70 22 4.0 7.0 0.00 0.00 0.00 81 989.4
20260906005155 70 41 4.0 7.0 0.00 0.00 0.00 81 989.3
20260906004655 70 13 4.0 8.0 0.00 0.00 0.00 81 989.3
20260906004156 70 37 5.0 9.0 0.00 0.00 0.00 80 989.3
20260906003934 70 41 4.0 9.0 0.00 0.00 0.00 80 989.2
20260906003153 70 310 5.0 10.0 0.00 0.00 0.00 80 989.2
20260906002652 71 38 5.0 10.0 0.00 0.00 0.00 80 989.2
20260906002146 71 44 4.0 10.0 0.00 0.00 0.00 80 989.3
20260906001653 71 104 4.0 10.0 0.00 0.00 0.00 80 989.2
20260906000643 71 22 6.0 11.0 0.00 0.00 0.00 80 989.3
20260906000418 71 42 6.0 12.0 0.00 0.00 0.00 79 989.4
20260905235642 71 72 5.0 12.0 0.00 0.00 0.00 79 989.3
20260905235141 71 68 5.0 10.0 0.00 0.00 0.00 79 989.3
20260905234919 71 53 5.0 10.0 0.00 0.00 0.00 79 989.4
20260905234140 71 50 5.0 10.0 0.00 0.00 0.00 80 989.4
20260905233641 71 60 4.0 9.0 0.00 0.00 0.00 79 989.3
20260905233138 71 32 4.0 10.0 0.00 0.00 0.00 79 989.4
20260905232639 71 355 5.0 12.0 0.00 0.00 0.00 79 989.4
20260905232138 71 43 6.0 14.0 0.00 0.00 0.00 79 989.3
20260905231634 71 41 6.0 14.0 0.00 0.00 0.00 80 989.3
20260905231410 71 15 6.0 14.0 0.00 0.00 0.00 80 989.3
20260905230634 71 34 6.0 14.0 0.00 0.00 0.00 80 989.3
20260905230135 71 41 6.0 14.0 0.00 0.00 0.00 80 989.4
20260905225634 71 57 8.0 14.0 0.00 0.00 0.00 80 989.4
20260905225409 71 49 6.0 13.0 0.00 0.00 0.00 80 989.2
20260905224910 72 28 5.0 14.0 0.00 0.00 0.00 80 989.3
20260905224409 72 202 6.0 14.0 0.00 0.00 0.00 80 989.4
20260905223634 72 46 7.0 14.0 0.00 0.00 0.00 80 989.3
20260905223131 72 59 6.0 14.0 0.00 0.00 0.00 80 989.2
20260905222629 72 26 5.0 13.0 0.00 0.00 0.00 79 989.2
20260905222129 72 74 6.0 13.0 0.00 0.00 0.00 79 989.0
20260905221629 73 107 7.0 15.0 0.00 0.00 0.00 79 989.0
20260905221408 73 28 8.0 15.0 0.00 0.00 0.00 79 988.9
20260905220629 73 36 7.0 15.0 0.00 0.00 0.00 79 988.7
20260905220150 73 337 7.0 15.0 0.00 0.00 0.00 79 988.7
20260905220143 73 28 7.0 14.0 0.00 0.00 0.00 79 988.7
20260905215130 73 34 7.0 15.0 0.00 0.00 0.00 79 988.5
20260905214631 73 27 6.0 14.0 0.00 0.00 0.00 79 988.5
20260905214130 73 34 7.0 16.0 0.00 0.00 0.00 79 988.5
20260905213908 73 340 8.0 16.0 0.00 0.00 0.00 79 988.4
20260905213129 73 69 7.0 16.0 0.00 0.00 0.00 79 988.6
20260905212907 73 38 8.0 16.0 0.00 0.00 0.00 79 988.6
20260905212129 74 107 7.0 15.0 0.00 0.00 0.00 78 988.6
20260905211629 74 45 7.0 18.0 0.00 0.00 0.00 78 988.6
20260905211407 74 48 8.0 18.0 0.00 0.00 0.00 77 988.5
20260905210639 75 65 8.0 14.0 0.00 0.00 0.00 77 988.5
20260905205622 75 20 6.0 14.0 0.00 0.00 0.00 77 988.4
20260905205115 76 238 8.0 16.0 0.00 0.00 0.00 76 988.5
20260905204610 76 78 7.0 16.0 0.00 0.00 0.00 76 988.5
20260905204339 76 48 6.0 13.0 0.00 0.00 0.00 76 988.4
20260905203605 76 20 8.0 18.0 0.00 0.00 0.00 75 988.4
20260905203104 76 86 8.0 18.0 0.00 0.00 0.00 74 988.3
20260905202603 77 32 8.0 20.0 0.00 0.00 0.00 74 988.3
20260905202102 77 176 7.0 20.0 0.00 0.00 0.00 74 988.2
20260905201601 78 343 7.0 18.0 0.00 0.00 0.00 74 988.3
20260905201338 78 304 9.0 18.0 0.00 0.00 0.00 74 988.2
20260905200600 77 219 9.0 18.0 0.00 0.00 0.00 74 988.3
20260905195601 77 49 7.0 14.0 0.00 0.00 0.00 74 988.3
20260905195102 77 288 7.0 15.0 0.00 0.00 0.00 74 988.3
20260905194601 77 69 8.0 18.0 0.00 0.00 0.00 75 988.4
20260905194101 77 53 8.0 18.0 0.00 0.00 0.00 75 988.4
20260905193601 76 51 7.0 15.0 0.00 0.00 0.00 75 988.3
20260905193100 77 54 6.0 14.0 0.00 0.00 0.00 76 988.4
20260905192837 76 30 7.0 14.0 0.00 0.00 0.00 76 988.4
20260905192339 76 28 8.0 14.0 0.00 0.00 0.00 76 988.3
20260905191602 76 107 8.0 19.0 0.00 0.00 0.00 76 988.3
20260905191101 76 105 8.0 19.0 0.00 0.00 0.00 76 988.4
20260905190600 76 295 9.0 18.0 0.00 0.00 0.00 76 988.4
20260905190342 77 0 9.0 18.0 0.00 0.00 0.00 77 988.4
20260905185601 76 99 8.0 16.0 0.00 0.00 0.00 77 988.4
20260905185335 76 49 8.0 19.0 0.00 0.00 0.00 77 988.4
20260905184601 77 336 7.0 19.0 0.00 0.00 0.00 77 988.4
20260905184102 77 105 8.0 16.0 0.00 0.00 0.00 77 988.3
20260905183602 77 196 8.0 16.0 0.00 0.00 0.00 77 988.2
20260905183101 77 22 8.0 13.0 0.00 0.00 0.00 77 988.2
20260905182601 77 19 8.0 13.0 0.00 0.00 0.00 77 988.3
20260905182101 77 54 8.0 13.0 0.00 0.00 0.00 76 988.3
20260905181602 77 24 8.0 13.0 0.00 0.00 0.00 76 988.2
20260905181101 77 19 8.0 13.0 0.00 0.00 0.00 75 988.2
20260905180854 78 29 7.0 13.0 0.00 0.00 0.00 74 988.3
20260905180849 77 348 8.0 13.0 0.00 0.00 0.00 75 988.3
20260905175602 78 60 7.0 12.0 0.00 0.00 0.00 75 988.2
20260905175102 78 13 7.0 13.0 0.00 0.00 0.00 74 988.2
20260905174601 78 9 7.0 13.0 0.00 0.00 0.00 75 988.1
20260905174100 77 51 9.0 13.0 0.00 0.00 0.00 75 988.1
20260905173601 77 5 9.0 13.0 0.00 0.00 0.00 75 988.2
20260905173100 77 337 9.0 15.0 0.00 0.00 0.00 75 988.3
20260905172840 77 30 11.0 16.0 0.00 0.00 0.00 75 988.3
20260905172339 77 336 10.0 16.0 0.00 0.00 0.00 75 988.3
20260905171838 77 350 8.0 16.0 0.00 0.00 0.00 75 988.3
20260905171340 77 72 10.0 16.0 0.00 0.00 0.00 76 988.3
20260905170601 77 14 12.0 20.0 0.00 0.00 0.00 75 988.2
20260905170101 77 49 10.0 20.0 0.00 0.00 0.00 74 988.4
20260905165601 77 0 7.0 16.0 0.00 0.00 0.00 75 988.3
20260905165101 77 29 7.0 13.0 0.00 0.00 0.00 75 988.3
20260905164836 77 50 9.0 18.0 0.00 0.00 0.00 75 988.4
20260905164100 77 39 7.0 18.0 0.00 0.00 0.00 75 988.4
20260905163601 77 29 6.0 13.0 0.00 0.00 0.00 75 988.3
20260905163338 77 327 8.0 13.0 0.00 0.00 0.00 75 988.3
20260905162602 76 42 8.0 14.0 0.00 0.00 0.00 76 988.3
20260905162339 76 20 8.0 14.0 0.00 0.00 0.00 75 988.2
20260905161601 76 135 8.0 13.0 0.00 0.00 0.00 76 988.3
20260905161101 76 17 8.0 15.0 0.00 0.00 0.00 77 988.4
20260905160602 76 355 7.0 15.0 0.00 0.01 0.00 76 988.4
20260905160101 76 45 6.0 15.0 0.00 0.01 0.00 76 988.3
20260905155601 76 40 7.0 15.0 0.00 0.04 0.00 76 988.3
20260905155341 76 20 7.0 13.0 0.00 0.05 0.00 76 988.3
20260905154601 75 27 8.0 12.0 0.00 0.05 0.00 77 988.2
20260905154336 75 11 6.0 12.0 0.00 0.05 0.00 77 988.1
20260905153601 75 40 4.0 12.0 0.00 0.05 0.00 77 988.3
20260905153338 75 48 6.0 13.0 0.00 0.06 0.00 78 988.2
20260905152601 75 46 7.0 13.0 0.00 0.06 0.00 78 988.3
20260905152102 74 53 9.0 19.0 0.00 0.08 0.00 79 988.2
20260905151600 74 81 8.0 19.0 0.00 0.08 0.00 79 988.0
20260905151102 74 22 5.0 13.0 0.00 0.08 0.00 80 988.1
20260905150601 74 11 6.0 13.0 0.00 0.08 0.00 80 988.0
20260905145600 73 41 4.0 9.0 0.00 0.11 0.00 82 988.0
20260905145101 73 53 6.0 15.0 0.00 0.11 0.00 83 988.0
20260905144601 73 336 10.0 15.0 0.00 0.11 0.00 83 987.9
20260905144338 73 17 9.0 15.0 0.00 0.11 0.00 84 987.9
20260905143601 73 21 7.0 16.0 0.00 0.11 0.00 85 987.7
20260905143101 72 16 7.0 16.0 0.00 0.11 0.00 86 987.6
20260905142601 72 22 7.0 14.0 0.00 0.11 0.00 88 987.7
20260905142102 72 64 6.0 14.0 0.00 0.11 0.00 89 987.6
20260905141602 72 42 5.0 12.0 0.00 0.11 0.00 90 987.6
20260905141100 72 57 6.0 12.0 0.00 0.11 0.00 90 987.7
20260905140601 72 74 8.0 14.0 0.00 0.11 0.00 91 987.7
20260905140101 72 28 7.0 15.0 0.00 0.12 0.00 91 987.7
20260905135627 72 83 8.0 15.0 0.00 0.12 0.00 91 987.6
20260905135350 71 53 10.0 16.0 0.00 0.12 0.00 91 987.5
20260905134101 72 24 7.0 15.0 0.00 0.13 0.00 92 987.7
20260905133836 71 317 7.0 14.0 0.00 0.18 0.00 92 987.7